CW5466 Weather Reports


time (UTC)temp
C
wind
direction
speed
KPH
gust
KPH
rain 1hr
cm
rain 24hr
cm
rain mn
cm
humidity
%
barometer
mb
20260502123044 4 290 4.8 8.0 0.00 0.00 0.00 70 1021.5
20260502121544 4 331 6.4 8.0 0.00 0.00 0.00 70 1021.3
20260502114600 2 327 3.2 6.4 0.00 0.00 0.00 74 1021.0
20260502113041 2 294 3.2 4.8 0.00 0.00 0.00 75 1020.7
20260502111542 2 252 3.2 6.4 0.00 0.00 0.00 73 1020.7
20260502110044 2 311 0.0 3.2 0.00 0.00 0.00 74 1020.7
20260502104544 2 317 1.6 3.2 0.00 0.00 0.00 72 1020.7
20260502103043 2 0 0.0 0.0 0.00 0.00 0.00 71 1020.5
20260502101558 2 0 0.0 0.0 0.00 0.00 0.00 73 1020.4
20260502100104 1 0 0.0 0.0 0.00 0.00 0.00 78 1020.4
20260502070055 5 325 4.8 8.0 0.00 0.00 0.00 61 1020.1
20260502064611 6 327 4.8 8.0 0.00 0.00 0.00 58 1020.1
20260502063101 6 350 4.8 6.4 0.00 0.00 0.00 58 1020.1
20260502061545 5 26 4.8 6.4 0.00 0.00 0.00 58 1020.2
20260502060047 5 346 6.4 8.0 0.00 0.00 0.00 60 1020.3
20260502054548 5 335 6.4 8.0 0.00 0.00 0.00 59 1020.3
20260502053050 6 336 4.8 6.4 0.00 0.00 0.00 59 1020.2
20260502051542 6 348 4.8 4.8 0.00 0.00 0.00 57 1020.1
20260502050047 6 343 4.8 4.8 0.00 0.00 0.00 58 1020.1
20260502044541 6 348 3.2 4.8 0.00 0.00 0.00 58 1019.9
20260502043112 6 333 3.2 3.2 0.00 0.00 0.00 55 1019.9
20260502041546 7 344 4.8 8.0 0.00 0.00 0.00 50 1019.8
20260502040037 8 14 6.4 8.0 0.00 0.00 0.00 49 1019.7
20260502034541 8 335 6.4 8.0 0.00 0.00 0.00 48 1019.7
20260502033043 8 331 6.4 9.7 0.00 0.00 0.00 48 1019.6
20260502031543 8 340 6.4 11.3 0.00 0.00 0.00 48 1019.5
20260502030048 9 351 6.4 11.3 0.00 0.00 0.00 47 1019.2
20260502024541 9 350 6.4 14.5 0.00 0.00 0.00 46 1019.0
20260502023044 10 331 11.3 17.7 0.00 0.00 0.00 45 1018.8
20260502021544 9 326 8.0 9.7 0.00 0.00 0.00 47 1018.4
20260502020044 10 333 6.4 9.7 0.00 0.00 0.00 46 1018.1
20260502014542 10 333 6.4 11.3 0.00 0.00 0.00 44 1017.8
20260502013049 11 345 9.7 20.9 0.00 0.00 0.00 39 1017.6
20260502011539 12 347 16.1 27.4 0.00 0.00 0.00 36 1017.5
20260502010044 13 323 16.1 25.7 0.00 0.00 0.00 34 1017.3
20260502004546 14 13 20.9 32.2 0.00 0.00 0.00 32 1017.0
20260502003043 15 317 20.9 30.6 0.00 0.00 0.00 32 1016.6
20260502001541 15 321 25.7 37.0 0.00 0.00 0.00 32 1016.5
20260502000039 15 308 24.1 37.0 0.00 0.00 0.00 33 1016.4
20260501234545 16 321 27.4 37.0 0.00 0.00 0.00 33 1016.3
20260501233043 16 316 25.7 33.8 0.00 0.00 0.00 33 1016.3
20260501231540 16 302 24.1 33.8 0.00 0.00 0.00 33 1016.2
20260501230050 16 336 22.5 38.6 0.00 0.00 0.00 33 1016.3
20260501224548 16 323 27.4 35.4 0.00 0.00 0.00 33 1016.3
20260501223045 16 311 25.7 33.8 0.00 0.00 0.00 34 1016.4
20260501221543 16 330 25.7 35.4 0.00 0.00 0.00 33 1016.3
20260501220055 17 338 22.5 33.8 0.00 0.00 0.00 32 1016.4
20260501214544 16 312 29.0 40.2 0.00 0.00 0.00 35 1016.5
20260501213045 16 311 22.5 32.2 0.00 0.00 0.00 34 1016.6
20260501211546 17 291 29.0 40.2 0.00 0.00 0.00 34 1016.9
20260501210044 17 305 24.1 45.1 0.00 0.00 0.00 33 1016.9
20260501204557 16 322 20.9 35.4 0.00 0.00 0.00 32 1017.1
20260501203043 17 317 30.6 40.2 0.00 0.00 0.00 31 1017.1
20260501201543 17 299 19.3 38.6 0.00 0.00 0.00 30 1017.2
20260501200045 17 325 24.1 35.4 0.00 0.00 0.00 31 1017.2
20260501194546 17 313 17.7 32.2 0.00 0.00 0.00 34 1017.5
20260501193041 17 301 25.7 35.4 0.00 0.00 0.00 32 1017.5
20260501191542 17 317 25.7 37.0 0.00 0.00 0.00 31 1017.7
20260501190045 17 327 22.5 30.6 0.00 0.00 0.00 34 1017.7
20260501184550 16 325 24.1 33.8 0.00 0.00 0.00 32 1017.8
20260501183051 16 322 17.7 41.8 0.00 0.00 0.00 36 1017.8
20260501181541 16 306 29.0 35.4 0.00 0.00 0.00 35 1017.9
20260501180049 15 331 19.3 25.7 0.00 0.00 0.00 40 1017.9
20260501174543 16 313 19.3 38.6 0.00 0.00 0.00 43 1018.1
20260501173048 15 298 16.1 29.0 0.00 0.00 0.00 44 1018.0
20260501171552 15 288 17.7 32.2 0.00 0.00 0.00 45 1018.3
20260501170043 14 276 22.5 32.2 0.00 0.00 0.00 45 1018.5
20260501164544 15 308 27.4 38.6 0.00 0.00 0.00 41 1018.3
20260501163044 15 291 20.9 35.4 0.00 0.00 0.00 42 1018.4
20260501161541 15 261 22.5 32.2 0.00 0.00 0.00 45 1018.4
20260501160046 14 294 29.0 38.6 0.00 0.00 0.00 45 1018.4
20260501154549 14 264 14.5 24.1 0.00 0.00 0.00 47 1018.5
20260501153043 14 259 14.5 27.4 0.00 0.00 0.00 46 1018.4
20260501151552 13 290 24.1 30.6 0.00 0.00 0.00 45 1018.5